Regional Weather Roundup
Issued by NWS Northern Indiana

Home | Current Version | Previous Version | Graphics & Text | Print | Product List | Glossary On
Versions: 1 2 3 4 5 6 7 8 9 10 11 12 13 14 15 16 17 18 19 20 21 22 23 24 25 26 27 28 29 30 31 32 33 34 35 36 37 38 39 40 41 42 43 44 45 46 47 48 49 50
000
ASUS43 KIWX 200510
RWRIWX

KIWX WEATHER ROUNDUP
NATIONAL WEATHER SERVICE NORTHERN INDIANA
100 AM EDT FRI OCT 20 2017

NOTE: "FAIR" INDICATES FEW OR NO CLOUDS BELOW 12,000 FEET WITH NO
SIGNIFICANT WEATHER AND/OR OBSTRUCTIONS TO VISIBILITY.

* THESE STATIONS ARE NOT UNDER NWS QUALITY CONTROL. THEY ALSO MAY NOT
  REPORT WEATHER SUCH AS PRECIPITATION OR FOG.

INZ001>027-200600-
NORTHERN INDIANA

CITY           SKY/WX    TMP DP  RH WIND       PRES   REMARKS
GARY*          FAIR      56  32  39 SE6       30.17S
VALPARAISO     FAIR      50  39  66 E5        30.19S
MICHIGAN CITY* FAIR      43  43 100 CALM      30.19S
LAPORTE*       FAIR      44  41  87 CALM      30.20S
KNOX*          FAIR      46  37  71 SE5       30.19S
SOUTH BEND     FAIR      45  40  82 CALM      30.20F
GOSHEN         FAIR      44  38  79 CALM      30.20S
MONTICELLO*    FAIR      52  51  95 CALM      30.19S
LOGANSPORT*    FAIR      50  45  81 E3        30.21S
WARSAW*        FAIR      45  41  87 CALM      30.21S
AUBURN*        FAIR      45  39  81 CALM      30.22S
FORT WAYNE     FAIR      48  43  82 CALM      30.21F
HUNTINGTON*    FAIR      48  47  96 CALM      30.21S
PERU/GRISSOM   FAIR      52  50  91 SE3       30.20S
MARION*        FAIR      50  46  87 CALM      30.22S FOG

$$
INZ028>050-200600-
CENTRAL INDIANA

CITY           SKY/WX    TMP DP  RH WIND       PRES   REMARKS
LAFAYETTE      FAIR      53  51  93 CALM      30.19S
KOKOMO*        FAIR      49  47  93 E3        30.22S
MUNCIE*        FAIR      49  46  90 CALM      30.22S
INDIANAPOLIS   FAIR      58  51  78 SW5       30.22S

$$
MIZ043>046-050>051-056>058-064>065-071>073-077>080-200600-
SOUTHWEST LOWER MICHIGAN

CITY           SKY/WX    TMP DP  RH WIND       PRES   REMARKS
BATTLE CREEK   FAIR      46  35  65 CALM      30.21R
BENTON HARBOR  FAIR      42  38  85 E3        30.18S
COLDWATER*     FAIR      41  38  87 CALM      30.21S
HILLSDALE*     FAIR      46  30  53 CALM      30.21R
HOLLAND        FAIR      45  40  82 SE3       30.19R
GRAND RAPIDS   FAIR      46  37  71 CALM      30.19S
KALAMAZOO      FAIR      43  36  76 CALM      30.21R
STURGIS*       FAIR      44  36  73 CALM      30.20S
THREE RIVERS*  FAIR      44  40  86 CALM      30.21S

$$
OHZ001>008-015>018-024>025-200600-
NORTHWEST OHIO

CITY           SKY/WX    TMP DP  RH WIND       PRES   REMARKS
WAUSEON*       FAIR      46  32  57 CALM      30.20S
DEFIANCE       FAIR      44  39  82 CALM      30.21S
FINDLAY        FAIR      51  42  71 W3        30.20R
TOLEDO EXPRESS FAIR      47  40  76 CALM      30.20S
TOLEDO METCALF FAIR      49  37  63 W5        30.21R
LIMA           FAIR      46  45  96 SW3       30.21S

$$
AND FOR LAKE MICHIGAN COASTAL AND OPEN LAKE BUOY OBSERVATIONS

STATION/POSITION TEMP    WIND        PRES    VSBY  WAVE
                 AIR SEA DIR/SP/G                  HT/PER
                 (F)     (DEG/KT/KT) (MB)    (MI)  (FT/S)
CALUMET HARBOR    59     170/  6/ 10 1020.6F
MICHIGAN CITY     56     140/ 10/ 11   N/A
BURNS HARBOR      61     140/ 12/ 16 1021.7
SAINT JOSEPH      52     150/  3/  5 1022.4
SOUTH LAKE BUOY   62 61  140/ 10/ 12 1021.2S         1/ 3
4 MI NW BRIDGMAN  59 58  170/  6/  8 1022.0          1/ 4
MICHIGAN CITY     58 58  150/  6/ 10   N/A           1

$$
&&



USA.gov is the U.S. government's official web portal to all federal, state and local government web resources and services.